Back to catalog

SHIYAN 27A

AliveScienceSSO
NORAD 63599·PAYLOAD·🇨🇳 China

Launched Apr 18, 2025 from Taiyuan Satellite Launch Center

Loading…

Next Passes (next 24 hours)

TLE

FreshSource: Space-Track

Epoch: Sep 14, 2026, 14:10 UTC

1 63599U 25078A   26257.59040368 -.00000007  00000-0  52104-4 0  9995
2 63599  99.6941 263.4866 0000973 106.0783 254.0462 13.57250188 69661

Track SHIYAN 27A in real time with AllMySat

Download on the App Store